Wind_Speed
8 9 10 10 10 11 12 12 12 11 12 12 12 12 12 12 12 12 13 13 13 13 14 14 14 14 13 13 13 13 12 12 12 11 10 10 10 9 9 9 9 9 9 9
10 10 10 10 10 11 12 14 13 12 12 13 14 13 12 12 12 12 13 13 13 13 14 14 15 15 15 15 15 14 14 13 13 13 12 12 12 12 12 11 11 11 12 12
11 11 11 11 11 11 12 12 12 12 12 13 13 12 12 12 12 12 13 13 15 15 15 16 16 16 16 16 16 15 15 15 15 15 14 14 14 14 14 14 13 13 14 14
11 11 12 10 11 12 12 12 12 12 12 12 12 12 12 12 12 13 13 14 15 16 17 17 17 17 17 17 16 16 17 17 16 16 16 16 16 16 16 16 16 16 16 16
12 12 11 11 11 12 12 11 11 12 12 12 12 13 13 13 13 13 13 14 15 16 17 18 18 18 19 18 18 18 18 18 18 18 18 18 18 18 18 18 18 17 17 17
13 13 12 11 12 13 13 12 11 12 12 13 13 13 13 13 14 14 14 15 16 16 16 17 18 19 19 19 19 20 20 20 20 20 20 20 20 20 20 19 19 19 19 20
14 14 13 13 13 13 13 12 13 13 14 14 14 13 13 13 14 15 15 16 16 16 16 17 18 20 20 20 20 21 21 21 21 21 21 21 21 21 21 21 21 22 22 22
16 16 14 14 14 14 13 13 13 14 15 15 15 14 14 15 15 16 16 16 16 17 17 18 19 19 20 20 21 22 21 22 22 22 22 23 23 23 23 23 23 23 24 24
18 16 15 14 13 13 13 14 14 14 15 15 16 16 17 16 17 17 17 18 18 19 19 20 20 21 21 22 22 22 22 23 23 24 24 24 24 25 25 25 25 26 26 27
19 17 16 15 15 15 14 15 14 14 15 16 17 18 19 18 18 18 19 20 21 22 21 21 22 22 23 23 23 24 24 25 25 26 26 26 27 27 27 27 27 28 29 29
20 19 17 16 16 16 16 16 16 16 17 17 18 18 19 20 20 20 20 21 21 21 22 22 23 23 24 24 25 26 26 26 27 27 28 29 29 29 29 29 30 30 31 32
22 20 19 19 19 18 19 19 19 18 18 18 19 19 20 20 21 22 22 22 22 23 23 24 25 25 25 25 26 27 27 28 28 29 30 30 30 30 31 31 32 33 34 34
24 23 22 22 22 21 21 21 21 21 20 21 21 21 21 22 22 23 23 24 24 25 26 26 26 26 27 27 27 28 28 29 29 30 30 30 31 31 32 33 34 34 35 36
28 28 27 26 25 25 24 24 24 23 23 23 23 23 23 23 23 23 25 26 26 26 27 27 27 28 28 29 29 29 30 30 30 30 31 31 32 33 34 34 35 36 37 39
32 31 31 30 29 28 27 26 26 25 25 25 25 25 25 25 25 25 26 27 27 28 28 29 29 29 30 30 31 31 31 31 32 32 33 34 35 35 36 37 38 39 40 42
34 34 33 33 32 31 30 29 29 28 27 27 26 27 28 28 28 28 28 28 28 29 29 29 30 30 31 31 31 32 32 33 34 34 35 36 37 38 39 40 41 42 43 44
35 35 35 34 33 33 33 32 31 31 30 29 29 29 29 30 30 29 30 30 30 30 30 31 31 32 32 32 33 34 35 35 35 36 37 38 39 41 42 43 44 45 45 47
37 37 37 36 35 35 35 35 34 34 34 33 32 31 31 31 31 31 32 32 32 32 32 33 33 33 33 34 35 35 36 37 38 39 40 41 42 43 45 45 46 47 48 49
37 37 37 37 36 36 36 36 36 36 35 35 34 34 34 34 34 33 34 34 34 34 34 35 35 35 36 36 37 38 39 39 40 41 42 43 44 45 46 47 48 49 50 51
36 36 37 37 37 37 37 37 37 36 36 37 37 37 36 36 36 36 36 36 36 36 36 37 38 38 39 39 39 40 41 42 42 43 44 45 46 47 48 49 49 50 51 51
36 36 36 37 37 37 38 38 38 38 38 38 38 38 38 38 38 38 38 38 38 39 39 39 40 40 41 42 42 43 44 45 46 46 47 47 48 49 49 50 50 50 50 51
36 36 36 37 38 38 38 39 39 40 40 40 40 40 40 40 40 40 40 41 41 41 42 42 43 43 44 44 45 45 46 47 48 49 49 50 50 50 50 50 51 51 51 51
36 36 37 37 38 39 39 39 40 40 40 40 41 42 42 42 42 43 43 43 44 44 44 44 45 45 46 47 48 48 49 49 50 51 51 52 52 53 52 52 52 52 52 53
37 37 37 38 38 39 39 39 40 40 41 41 42 43 44 45 45 45 46 46 46 46 46 46 47 47 48 48 49 49 50 51 52 53 53 53 53 53 53 53 53 53 54 55
36 37 38 38 39 39 39 39 40 41 41 42 43 44 45 46 46 46 47 47 47 47 48 48 49 49 50 50 50 51 51 52 53 53 54 54 54 54 54 54 54 54 55 55
36 37 37 38 38 39 39 39 40 41 42 43 43 44 45 46 47 48 49 49 49 50 50 50 51 51 52 52 53 53 53 54 54 54 54 54 54 54 54 55 55 55 56 56
36 37 37 37 38 38 39 40 41 42 42 43 44 45 45 46 47 48 49 49 50 50 51 52 52 52 53 53 54 54 54 54 54 55 54 54 54 54 55 56 56 56 57 57
Wind_Direction
213 211 210 212 215 219 224 225 228 226 226 226 225 220 217 215 214 210 206 207 210 215 219 222 225 227 228 229 232 235 239 241 243 246 248 251 254 259 264 270 276 280 283 288
218 215 212 210 217 221 222 224 226 227 224 224 226 227 221 216 214 212 211 213 216 219 222 225 228 230 231 233 236 237 241 242 245 247 250 252 255 259 263 268 273 277 279 283
220 222 224 227 223 221 219 222 226 231 229 224 226 226 225 223 222 222 222 223 224 225 226 228 231 232 233 236 239 239 242 244 246 249 251 254 257 261 264 268 272 275 278 281
222 226 227 222 222 220 220 222 227 230 227 225 225 225 227 228 228 227 228 232 232 231 231 232 234 235 236 238 241 241 243 246 248 250 253 256 260 263 266 269 272 274 277 280
222 223 221 222 223 225 223 224 227 228 227 229 233 231 231 234 235 233 233 238 237 236 237 236 237 238 239 241 243 244 245 247 250 253 255 258 261 264 267 269 271 273 275 279
227 229 226 226 228 230 232 231 229 229 231 235 240 238 235 236 238 240 238 241 242 242 241 240 241 242 242 244 247 247 247 249 252 255 257 260 262 265 268 270 271 273 276 280
231 231 228 228 229 233 234 233 232 233 234 238 240 239 239 239 241 244 245 244 245 245 245 246 247 246 246 247 249 249 249 252 253 256 257 260 264 267 268 270 272 274 277 280
233 235 231 231 232 236 238 236 238 238 239 241 242 242 241 243 245 249 250 250 248 247 246 246 247 248 249 249 250 250 251 253 255 257 259 261 264 266 268 269 271 274 277 279
239 241 240 239 241 243 244 246 247 246 245 245 245 245 246 248 249 250 251 251 250 248 248 249 248 249 250 251 252 252 252 255 257 259 261 262 264 265 268 270 272 274 276 279
240 239 242 244 245 247 251 252 253 254 253 253 253 253 252 253 253 252 253 255 253 249 249 250 250 251 252 252 253 254 255 257 259 261 262 264 265 267 270 271 273 274 277 279
242 242 244 246 248 250 253 255 257 257 255 255 256 256 255 254 255 254 254 256 257 255 253 252 253 254 254 254 254 255 256 258 260 261 262 264 267 269 270 272 274 275 277 279
244 243 246 249 251 254 256 258 261 261 258 257 257 257 258 258 256 257 258 259 259 257 256 255 255 255 255 256 257 258 259 262 262 263 264 265 266 268 269 271 273 275 277 280
245 247 249 251 253 256 258 259 260 261 261 259 259 260 260 261 260 259 259 261 262 260 258 258 259 258 258 259 261 262 262 263 264 264 265 266 267 269 271 272 274 276 277 280
245 248 251 253 255 257 258 259 260 261 261 261 260 260 261 261 261 261 260 259 262 263 261 260 261 261 260 261 262 262 263 263 264 264 265 267 269 271 272 274 275 277 279 280
245 248 251 253 256 257 258 260 261 262 263 262 261 260 261 262 262 262 262 262 263 264 263 261 261 261 262 263 263 263 264 265 265 266 267 269 271 273 274 276 277 279 280 282
244 247 251 254 256 257 258 260 262 263 263 264 264 262 261 262 263 264 264 265 264 264 264 264 263 263 263 264 265 266 267 267 267 268 269 270 272 274 276 277 279 280 282 283
244 247 251 254 255 256 257 258 260 262 262 263 264 264 263 263 263 264 265 265 265 264 265 266 266 267 267 267 268 268 269 269 270 271 272 274 275 276 278 279 280 281 283 284
247 249 251 253 255 255 256 258 259 260 261 263 264 265 264 264 264 265 266 266 266 266 266 267 268 268 269 269 269 269 270 271 272 273 274 276 277 278 279 280 281 282 283 284
250 250 251 253 254 255 257 258 258 259 261 262 263 264 265 265 266 266 266 267 267 267 267 267 267 268 269 270 270 271 272 272 273 275 276 277 279 280 281 281 282 283 283 284
250 251 252 253 254 256 257 258 259 260 261 262 262 263 265 266 267 267 267 268 268 268 268 268 268 268 269 270 271 272 273 274 274 275 277 278 280 281 282 282 283 283 284 284
251 252 253 255 256 258 259 260 261 261 262 262 263 263 265 266 267 268 269 269 269 269 270 271 271 271 271 271 272 274 275 275 276 277 278 279 280 281 282 283 283 283 283 284
251 252 254 255 257 259 260 261 262 262 262 263 263 264 265 266 267 268 269 270 270 270 271 272 272 272 272 273 274 274 275 276 277 278 279 280 281 281 282 282 283 283 283 284
250 252 254 256 258 259 260 261 262 263 263 263 263 264 265 266 267 268 269 270 271 272 272 273 273 273 274 274 275 276 276 277 278 279 280 280 281 281 281 282 282 283 283 284
252 253 255 257 259 260 261 261 262 263 264 264 265 265 266 267 268 269 270 270 271 272 273 273 274 275 275 276 276 277 278 278 279 279 280 280 281 281 281 281 282 282 283 283
255 256 257 258 260 261 262 263 264 264 265 266 267 267 268 269 269 270 271 272 272 273 273 273 274 274 275 276 277 278 278 279 280 280 281 281 281 281 282 282 282 283 283 283
256 257 258 259 260 262 263 265 265 266 267 268 268 269 270 270 271 272 272 273 273 274 274 274 274 275 276 277 278 279 279 280 280 281 281 282 282 282 282 282 282 283 283 283
258 258 259 260 261 263 264 266 267 267 268 268 269 270 271 271 272 273 273 274 274 275 275 275 276 277 277 278 279 279 280 281 282 282 282 282 282 283 282 282 283 283 284 284
Height
5828 5829 5830 5831 5833 5834 5835 5837 5839 5841 5843 5845 5846 5848 5850 5852 5853 5855 5857 5860 5862 5865 5867 5869 5871 5872 5874 5876 5877 5879 5880 5881 5881 5882 5883 5883 5883 5884 5883 5883 5882 5882 5881 5880
5826 5827 5828 5829 5831 5832 5833 5835 5837 5838 5841 5842 5844 5845 5847 5849 5851 5853 5855 5857 5859 5862 5863 5865 5867 5869 5871 5873 5874 5875 5876 5877 5878 5879 5879 5880 5880 5880 5880 5880 5879 5879 5878 5877
5824 5825 5826 5828 5829 5830 5831 5833 5834 5836 5839 5840 5841 5843 5844 5846 5849 5850 5852 5854 5856 5858 5860 5862 5864 5866 5867 5869 5870 5871 5872 5873 5874 5875 5875 5876 5876 5876 5876 5876 5876 5875 5874 5873
5822 5824 5825 5828 5826 5827 5829 5830 5832 5834 5835 5837 5839 5841 5842 5844 5846 5847 5849 5851 5852 5854 5857 5858 5860 5861 5863 5864 5866 5867 5868 5869 5870 5870 5871 5871 5872 5872 5872 5872 5872 5871 5870 5869
5819 5820 5822 5824 5824 5825 5826 5828 5830 5831 5833 5834 5836 5838 5839 5841 5843 5844 5846 5847 5849 5851 5852 5854 5855 5857 5858 5859 5861 5862 5863 5864 5865 5866 5866 5867 5867 5867 5867 5867 5867 5866 5865 5864
5817 5818 5819 5822 5822 5822 5825 5825 5827 5828 5830 5831 5833 5835 5837 5838 5839 5841 5842 5844 5845 5846 5848 5849 5850 5852 5853 5855 5856 5857 5858 5859 5860 5860 5861 5861 5861 5861 5862 5861 5861 5861 5860 5859
5813 5814 5816 5818 5819 5820 5822 5824 5824 5825 5826 5827 5829 5831 5833 5834 5835 5837 5838 5839 5841 5842 5843 5845 5846 5847 5849 5850 5851 5851 5852 5853 5854 5854 5855 5855 5855 5856 5856 5856 5855 5855 5854 5853
5809 5810 5814 5814 5815 5817 5818 5819 5820 5821 5822 5824 5825 5827 5828 5830 5831 5832 5833 5835 5836 5837 5839 5840 5841 5842 5843 5844 5845 5845 5846 5847 5848 5848 5849 5849 5849 5849 5849 5849 5849 5848 5847 5846
5806 5809 5809 5810 5811 5813 5814 5815 5817 5818 5819 5820 5821 5822 5824 5825 5826 5827 5828 5829 5830 5832 5833 5834 5835 5836 5838 5838 5839 5839 5840 5841 5841 5842 5842 5842 5842 5842 5842 5842 5842 5841 5840 5839
5800 5802 5804 5806 5807 5809 5810 5811 5812 5813 5814 5816 5816 5817 5819 5820 5821 5822 5823 5823 5824 5825 5826 5828 5829 5830 5831 5831 5832 5833 5833 5834 5834 5835 5835 5835 5835 5835 5835 5834 5833 5833 5832 5830
5795 5798 5800 5801 5803 5804 5806 5807 5808 5809 5810 5810 5811 5812 5813 5814 5815 5816 5817 5817 5818 5819 5820 5821 5822 5823 5824 5825 5825 5825 5826 5826 5827 5827 5827 5827 5827 5827 5826 5826 5825 5824 5823 5822
5790 5792 5794 5796 5797 5799 5800 5801 5802 5803 5804 5805 5806 5807 5807 5808 5809 5810 5810 5811 5811 5812 5813 5814 5815 5815 5816 5817 5818 5818 5818 5818 5819 5819 5819 5818 5818 5818 5817 5817 5816 5815 5814 5812
5784 5786 5788 5790 5791 5793 5794 5795 5796 5797 5798 5799 5800 5800 5801 5802 5802 5803 5804 5804 5805 5805 5806 5807 5807 5808 5809 5809 5810 5810 5810 5810 5810 5810 5810 5809 5809 5809 5808 5807 5806 5805 5803 5801
5777 5780 5781 5783 5785 5786 5787 5789 5789 5790 5791 5792 5793 5794 5795 5795 5796 5796 5797 5797 5798 5798 5799 5799 5799 5800 5800 5800 5801 5801 5801 5801 5801 5801 5801 5800 5800 5799 5798 5797 5796 5794 5793 5790
5770 5772 5774 5775 5777 5779 5780 5781 5782 5783 5784 5785 5786 5787 5787 5788 5788 5789 5789 5790 5790 5791 5791 5791 5791 5792 5792 5792 5792 5792 5792 5792 5792 5791 5791 5790 5789 5788 5787 5786 5785 5783 5781 5779
5761 5763 5765 5767 5769 5770 5772 5773 5774 5775 5776 5777 5778 5778 5779 5779 5780 5781 5781 5781 5782 5782 5782 5782 5783 5783 5783 5783 5783 5783 5783 5782 5781 5781 5780 5779 5778 5777 5776 5774 5773 5770 5768 5766
5752 5754 5756 5758 5760 5761 5763 5764 5765 5766 5767 5768 5769 5769 5770 5770 5771 5771 5772 5772 5772 5773 5773 5773 5773 5773 5773 5773 5773 5773 5772 5772 5771 5770 5769 5768 5767 5765 5764 5762 5760 5757 5755 5752
5742 5744 5746 5748 5750 5752 5753 5754 5756 5756 5757 5758 5759 5760 5761 5761 5762 5762 5762 5763 5763 5763 5763 5763 5763 5763 5763 5763 5762 5762 5761 5761 5760 5759 5758 5756 5754 5753 5751 5748 5746 5743 5741 5737
5731 5733 5736 5738 5740 5741 5742 5744 5745 5746 5747 5748 5749 5750 5750 5751 5751 5752 5752 5753 5753 5753 5753 5752 5752 5752 5752 5751 5751 5750 5749 5748 5747 5746 5745 5743 5741 5739 5736 5734 5731 5728 5725 5722
5721 5723 5725 5726 5728 5730 5731 5733 5734 5735 5736 5737 5738 5739 5739 5740 5740 5740 5741 5741 5742 5741 5741 5741 5741 5740 5740 5739 5738 5737 5736 5735 5734 5733 5731 5729 5727 5725 5722 5719 5716 5713 5709 5706
5710 5712 5714 5715 5717 5718 5720 5721 5722 5723 5724 5725 5726 5727 5728 5728 5728 5729 5729 5729 5729 5729 5729 5729 5728 5728 5727 5726 5725 5724 5723 5722 5720 5718 5716 5714 5712 5709 5707 5704 5700 5697 5693 5690
5699 5701 5703 5704 5706 5707 5708 5709 5710 5711 5712 5713 5714 5714 5715 5716 5716 5716 5716 5716 5716 5716 5716 5715 5715 5714 5713 5713 5712 5710 5709 5707 5705 5703 5701 5698 5696 5693 5690 5687 5684 5681 5677 5674
5688 5690 5691 5693 5694 5695 5696 5697 5698 5699 5699 5700 5701 5701 5702 5702 5702 5703 5703 5703 5702 5702 5702 5701 5701 5700 5699 5698 5697 5695 5694 5692 5690 5687 5685 5682 5679 5677 5674 5671 5668 5665 5661 5658
5677 5679 5680 5681 5682 5683 5684 5685 5686 5686 5687 5687 5687 5688 5688 5688 5688 5689 5689 5689 5688 5688 5687 5686 5685 5684 5683 5682 5681 5679 5677 5675 5673 5671 5668 5665 5663 5660 5657 5654 5651 5648 5645 5641
5665 5667 5668 5669 5670 5671 5672 5672 5673 5673 5674 5674 5674 5674 5674 5673 5674 5673 5673 5673 5673 5672 5672 5671 5670 5668 5667 5666 5664 5662 5661 5658 5656 5653 5651 5648 5645 5643 5640 5637 5634 5631 5627 5624
5653 5655 5656 5657 5658 5658 5659 5660 5660 5660 5660 5660 5660 5660 5659 5659 5658 5658 5658 5657 5657 5656 5655 5654 5653 5652 5650 5649 5647 5645 5643 5641 5638 5635 5633 5630 5628 5625 5622 5619 5616 5613 5609 5606
5641 5642 5643 5644 5645 5645 5646 5646 5647 5647 5646 5646 5646 5646 5645 5644 5643 5643 5642 5641 5640 5639 5638 5637 5635 5634 5633 5631 5629 5627 5625 5623 5620 5618 5615 5612 5610 5607 5604 5601 5597 5594 5591 5588